• In Lithuania
  • List of Countries
  • For 7 days
  • Water Temperature
  • Satellite Maps
  • Weather Map
  • Weather Widgets
  • user-avatar
    Login

    Hourly Weather Staraya Chigla

    Today, 16 November, Friday

    Time Temperature Precipitation Wind Pressure Humidity
    00:00 -7°C° 0 mm 4 mps 766 mmHg 30%
    01:00 -7°C° 0 mm 4 mps 766 mmHg 31%
    02:00 -7°C° 0 mm 4 mps 766 mmHg 31%
    03:00 -7°C° 0 mm 3 mps 766 mmHg 33%
    04:00 -8°C° 0 mm 4 mps 766 mmHg 32%
    05:00 -8°C° 0 mm 4 mps 766 mmHg 32%
    06:00 -8°C° 0 mm 4 mps 767 mmHg 32%
    07:00 -7°C° 0 mm 5 mps 767 mmHg 30%
    08:00 -7°C° 0 mm 5 mps 767 mmHg 29%
    09:00 -6°C° 0 mm 5 mps 767 mmHg 27%
    10:00 -5°C° 0 mm 5 mps 767 mmHg 24%
    11:00 -4°C° 0 mm 5 mps 767 mmHg 21%
    12:00 -1°C° 0 mm 5 mps 767 mmHg 18%
    13:00 -1°C° 0 mm 5 mps 767 mmHg 19%
    14:00 -1°C° 0 mm 5 mps 767 mmHg 19%
    15:00 -1°C° 0 mm 5 mps 767 mmHg 20%
    16:00 -2°C° 0 mm 5 mps 767 mmHg 22%
    17:00 -4°C° 0 mm 5 mps 767 mmHg 24%
    18:00 -5°C° 0 mm 5 mps 767 mmHg 26%
    19:00 -4°C° 0 mm 4 mps 767 mmHg 27%
    20:00 -4°C° 0 mm 4 mps 768 mmHg 28%
    21:00 -5°C° 0 mm 4 mps 768 mmHg 28%
    22:00 -5°C° 0 mm 4 mps 767 mmHg 28%
    23:00 -5°C° 0 mm 3 mps 767 mmHg 29%

    Tomorrow, 17 November, Saturday

    Time Temperature Precipitation Wind Pressure Humidity
    00:00 -5°C° 0 mm 3 mps 767 mmHg 29%
    01:00 -5°C° 0 mm 3 mps 767 mmHg 29%
    02:00 -6°C° 0 mm 3 mps 767 mmHg 29%
    03:00 -6°C° 0 mm 3 mps 767 mmHg 29%
    04:00 -6°C° 0 mm 3 mps 767 mmHg 29%
    05:00 -6°C° 0 mm 3 mps 767 mmHg 29%
    06:00 -6°C° 0 mm 3 mps 766 mmHg 29%
    07:00 -6°C° 0 mm 3 mps 766 mmHg 28%
    08:00 -5°C° 0 mm 3 mps 766 mmHg 27%
    09:00 -5°C° 0 mm 3 mps 766 mmHg 26%
    10:00 -4°C° 0 mm 3 mps 766 mmHg 24%
    11:00 -1°C° 0 mm 2 mps 765 mmHg 22%
    12:00 +1°C° 0 mm 2 mps 765 mmHg 19%
    13:00 +1°C° 0 mm 2 mps 765 mmHg 20%
    14:00 +1°C° 0 mm 2 mps 764 mmHg 22%
    15:00 +2°C° 0 mm 1 mps 764 mmHg 23%
    16:00 +1°C° 0 mm 1 mps 763 mmHg 24%
    17:00 0°C° 0 mm 1 mps 763 mmHg 25%
    18:00 -1°C° 0 mm 1 mps 762 mmHg 26%
    19:00 -1°C° 0 mm 1 mps 762 mmHg 25%
    20:00 -1°C° 0 mm 1 mps 762 mmHg 25%
    21:00 -2°C° 0 mm 0 mps 761 mmHg 25%
    22:00 -2°C° 0 mm 1 mps 761 mmHg 25%
    23:00 -2°C° 0 mm 1 mps 760 mmHg 25%

    Day after tomorrow, 18 November, Sunday

    Time Temperature Precipitation Wind Pressure Humidity
    00:00 -2°C° 0 mm 1 mps 760 mmHg 25%
    01:00 -2°C° 0 mm 1 mps 759 mmHg 25%
    02:00 -2°C° 0 mm 1 mps 758 mmHg 26%
    03:00 -4°C° 0 mm 2 mps 758 mmHg 27%
    04:00 -5°C° 0 mm 2 mps 757 mmHg 28%
    05:00 -5°C° 0 mm 2 mps 756 mmHg 30%
    06:00 -5°C° 0 mm 2 mps 756 mmHg 31%
    07:00 -5°C° 0 mm 2 mps 756 mmHg 32%
    08:00 -4°C° 0 mm 2 mps 755 mmHg 32%
    09:00 -4°C° 0 mm 2 mps 755 mmHg 33%
    10:00 -3°C° 0 mm 2 mps 755 mmHg 32%
    11:00 -1°C° 0 mm 3 mps 754 mmHg 30%
    12:00 0°C° 0 mm 3 mps 754 mmHg 29%
    13:00 +1°C° 0 mm 2 mps 754 mmHg 31%
    14:00 +1°C° 0 mm 2 mps 754 mmHg 32%
    15:00 +1°C° 0 mm 2 mps 754 mmHg 34%
    16:00 -1°C° 0 mm 2 mps 754 mmHg 36%
    17:00 -2°C° 0 mm 2 mps 753 mmHg 39%
    18:00 -3°C° 0 mm 2 mps 753 mmHg 42%
    19:00 -3°C° 0 mm 2 mps 753 mmHg 43%
    20:00 -3°C° 0 mm 2 mps 754 mmHg 43%
    21:00 -3°C° 0 mm 2 mps 754 mmHg 44%
    22:00 -4°C° 0 mm 2 mps 754 mmHg 45%
    23:00 -4°C° 0 mm 2 mps 754 mmHg 45%

    19 November, Monday

    Time Temperature Precipitation Wind Pressure Humidity
    00:00 -2°C° 0 mm 1 mps 754 mmHg 45%
    01:00 -2°C° 0 mm 1 mps 754 mmHg 46%
    02:00 -2°C° 0 mm 1 mps 755 mmHg 46%
    03:00 -4°C° 0 mm 2 mps 755 mmHg 46%
    04:00 -4°C° 0 mm 2 mps 755 mmHg 47%
    05:00 -4°C° 0 mm 2 mps 755 mmHg 47%
    06:00 -4°C° 0 mm 2 mps 755 mmHg 47%
    07:00 -4°C° 0 mm 2 mps 756 mmHg 47%
    08:00 -3°C° 0 mm 2 mps 756 mmHg 46%
    09:00 -3°C° 0 mm 2 mps 757 mmHg 45%
    10:00 -2°C° 0 mm 2 mps 757 mmHg 42%
    11:00 -1°C° 0 mm 2 mps 757 mmHg 39%
    12:00 0°C° 0 mm 3 mps 758 mmHg 37%
    13:00 +1°C° 0 mm 3 mps 758 mmHg 37%
    14:00 +1°C° 0 mm 3 mps 758 mmHg 37%
    15:00 +1°C° 0 mm 3 mps 758 mmHg 37%
    16:00 0°C° 0 mm 3 mps 759 mmHg 40%
    17:00 -1°C° 0 mm 3 mps 759 mmHg 42%
    18:00 -2°C° 0 mm 3 mps 759 mmHg 44%
    19:00 -4°C° 0 mm 3 mps 759 mmHg 42%
    20:00 -4°C° 0 mm 3 mps 760 mmHg 40%
    21:00 -4°C° 0 mm 3 mps 760 mmHg 38%
    22:00 -4°C° 0 mm 3 mps 760 mmHg 38%
    23:00 -4°C° 0 mm 3 mps 760 mmHg 38%

    20 November, Tuesday

    Time Temperature Precipitation Wind Pressure Humidity
    00:00 -4°C° 0 mm 3 mps 761 mmHg 38%
    01:00 -4°C° 0 mm 3 mps 761 mmHg 40%
    02:00 -4°C° 0 mm 4 mps 761 mmHg 42%
    03:00 -4°C° 0 mm 4 mps 761 mmHg 44%
    04:00 -4°C° 0 mm 4 mps 761 mmHg 46%
    05:00 -4°C° 0 mm 4 mps 761 mmHg 48%
    06:00 -4°C° 0 mm 4 mps 761 mmHg 50%
    07:00 -4°C° 0 mm 4 mps 761 mmHg 50%
    08:00 -3°C° 0 mm 4 mps 761 mmHg 50%
    09:00 -3°C° 0 mm 4 mps 761 mmHg 49%
    10:00 -2°C° 0 mm 4 mps 761 mmHg 47%
    11:00 -2°C° 0 mm 5 mps 761 mmHg 45%
    12:00 -1°C° 0 mm 5 mps 760 mmHg 43%
    13:00 -1°C° 0 mm 5 mps 760 mmHg 43%
    14:00 -1°C° 0 mm 5 mps 760 mmHg 43%
    15:00 0°C° 0 mm 5 mps 759 mmHg 42%
    16:00 -1°C° 0 mm 4 mps 759 mmHg 43%
    17:00 -1°C° 0 mm 4 mps 759 mmHg 44%
    18:00 -2°C° 0 mm 4 mps 759 mmHg 45%
    19:00 -2°C° 0.2 mm 4 mps 759 mmHg 53%
    20:00 -3°C° 0.2 mm 4 mps 759 mmHg 61%
    21:00 -4°C° 0.2 mm 5 mps 759 mmHg 69%
    22:00 -4°C° 0.3 mm 5 mps 759 mmHg 75%
    23:00 -4°C° 0.3 mm 5 mps 759 mmHg 81%

    21 November, Wednesday

    Time Temperature Precipitation Wind Pressure Humidity
    00:00 -4°C° 0.3 mm 4 mps 758 mmHg 86%
    01:00 -4°C° 0.1 mm 4 mps 758 mmHg 86%
    02:00 -4°C° 0.1 mm 4 mps 758 mmHg 85%
    03:00 -4°C° 0.1 mm 4 mps 758 mmHg 84%
    04:00 -4°C° 0 mm 4 mps 757 mmHg 83%
    05:00 -4°C° 0 mm 4 mps 757 mmHg 81%
    06:00 -4°C° 0 mm 4 mps 757 mmHg 79%
    07:00 -3°C° 0 mm 4 mps 756 mmHg 78%
    08:00 -3°C° 0 mm 4 mps 756 mmHg 76%
    09:00 -3°C° 0 mm 4 mps 756 mmHg 75%
    10:00 -3°C° 0 mm 4 mps 756 mmHg 75%
    11:00 -2°C° 0 mm 4 mps 755 mmHg 75%
    12:00 -2°C° 0 mm 4 mps 755 mmHg 75%
    13:00 -2°C° 0.1 mm 4 mps 755 mmHg 75%
    14:00 -2°C° 0.1 mm 5 mps 754 mmHg 76%
    15:00 -1°C° 0.1 mm 5 mps 753 mmHg 76%
    16:00 -1°C° 0.3 mm 5 mps 753 mmHg 77%
    17:00 -1°C° 0.3 mm 5 mps 753 mmHg 78%
    18:00 -1°C° 0.3 mm 5 mps 752 mmHg 79%
    19:00 -2°C° 0.8 mm 6 mps 752 mmHg 80%
    20:00 -2°C° 0.8 mm 6 mps 752 mmHg 81%
    21:00 -2°C° 0.8 mm 6 mps 751 mmHg 83%
    22:00 -2°C° 1 mm 6 mps 751 mmHg 84%
    23:00 -2°C° 1 mm 6 mps 750 mmHg 86%
    Show more